Back to catalog

FENGYUN 1C DEB

AliveSSO
NORAD 30360·DEBRIS·🇨🇳 China

Launched May 10, 1999 from Taiyuan Satellite Launch Center

Loading…

Next Passes (next 24 hours)

TLE

FreshSource: Space-Track

Epoch: Sep 14, 2026, 03:59 UTC

1 30360U 99025ABX 26257.16609576  .00001758  00000-0  72195-3 0  9997
2 30360  98.7483 332.1407 0029496  67.3625 322.6827 14.28078512 13284

Track FENGYUN 1C DEB in real time with AllMySat

Download on the App Store